Location: Catstown
(52.4386°N, 7.2633°W)
Time: 15:11:54
(UTC+00:00)

Lacrosse 5 rocket - Pass Details

Date: 18 September 2020
Orbit: 460 x 636 km, 57.0° (Epoch: 27 October)

Event Time Altitude Azimuth Distance (km) Brightness Sun altitude
Rises 21:23:33 0° 282° (WNW) 2,805 5.9 -24.4°
Reaches altitude 10° 21:25:51 10° 289° (WNW) 1,932 5.0 -24.6°
Maximum altitude 21:30:07 46° 3° (N) 825 2.3 -25.1°
Enters shadow 21:30:44 43° 28° (NNE) 866 2.3 -25.2°
